Wind_Speed
31 32 29 26 27 29 31 32 32 32 33 33 34 35 35 34 33 32 32 34 35 36 37 37 37 37 40 45 47 39 40 32 27 27 26 27 44 48 55 51 49 60 46 48 40 35 37
33 29 28 29 32 33 32 32 33 34 35 36 36 37 37 37 37 36 36 39 39 40 41 41 39 37 38 48 39 36 43 40 41 44 43 37 41 45 46 52 59 47 51 43 32 37 36
30 28 29 32 33 33 33 35 36 36 37 37 37 37 38 40 43 44 44 43 43 43 42 42 42 36 33 36 27 25 31 34 30 36 32 34 36 40 46 39 48 52 32 41 56 36 34
28 29 31 33 33 33 35 36 37 38 38 39 39 40 43 45 46 47 46 44 45 43 39 35 31 25 17 15 18 22 29 29 38 32 29 28 36 36 31 42 18 54 41 53 49 48 41
28 30 32 33 33 34 35 37 38 39 40 41 43 45 46 48 51 51 51 47 46 39 31 29 17 13 12 10 21 20 26 24 24 27 35 34 29 43 36 38 47 37 56 51 37 43 52
29 31 33 33 33 34 37 38 39 41 42 44 45 47 48 48 51 52 54 48 38 29 26 17 7 7 15 23 25 20 27 17 14 15 25 37 38 41 52 50 37 39 44 42 40 32 50
30 32 33 32 33 37 38 39 41 42 45 48 48 47 47 48 50 51 50 44 40 31 15 23 22 17 16 16 16 19 20 21 24 28 24 31 50 37 57 56 56 27 26 44 44 31 30
30 33 33 33 36 37 39 41 45 49 49 48 49 51 50 49 47 43 40 37 33 29 13 24 28 21 22 24 25 22 21 21 17 25 26 28 41 57 37 45 52 45 29 35 30 35 34
31 33 34 34 35 38 41 45 48 49 50 51 50 49 50 48 43 35 34 33 27 24 11 9 25 20 28 25 19 24 29 22 20 17 28 29 26 35 37 43 46 49 51 30 27 29 31
32 34 35 35 37 39 41 45 47 49 51 52 51 49 48 48 42 37 31 29 21 21 5 17 33 28 24 26 19 28 26 24 21 15 15 25 27 25 27 47 42 45 53 52 26 26 12
31 34 35 36 39 40 43 44 47 48 51 51 51 50 47 40 40 36 30 22 20 15 4 16 31 24 24 24 23 26 29 30 14 17 7 9 15 12 15 17 32 23 33 44 46 25 23
31 34 35 37 39 41 43 44 45 48 50 49 48 48 45 43 36 30 21 18 12 8 6 18 29 31 23 27 24 20 26 29 10 17 13 10 12 9 14 12 6 14 15 31 34 29 14
33 35 35 37 39 42 43 44 47 48 47 47 46 42 38 40 40 30 20 10 6 13 22 27 36 32 23 31 24 24 27 32 33 20 28 19 12 14 17 10 14 6 15 4 8 10 4
33 36 36 39 40 41 43 45 47 47 46 45 43 35 37 36 30 29 18 17 15 18 22 27 29 23 26 32 22 25 22 31 30 31 18 15 7 20 9 6 5 18 17 3 1 2 4
34 37 37 40 42 43 43 45 46 46 47 44 40 35 38 35 36 28 32 29 14 24 25 27 23 25 27 31 22 25 17 30 26 29 23 17 9 19 12 3 4 6 14 16 1 1 2
34 37 37 40 42 43 45 45 46 45 46 44 38 36 35 33 33 38 40 25 22 21 20 19 25 22 26 32 29 25 27 21 31 28 20 21 8 19 17 16 3 4 2 9 9 4 1
34 36 37 40 42 43 44 46 47 45 45 42 39 31 32 32 31 40 35 22 18 18 19 21 24 20 23 27 23 25 26 15 28 27 20 21 17 14 20 22 30 20 13 4 10 4 3
34 36 37 40 42 43 44 46 46 47 44 42 42 37 32 28 36 32 32 22 21 21 20 19 24 19 23 21 17 25 22 20 23 26 24 19 15 10 13 21 25 29 27 21 6 6 2
35 35 36 39 40 43 44 44 45 46 46 42 42 34 30 33 36 34 24 26 22 23 21 24 23 22 22 18 13 22 19 15 20 23 21 20 17 11 4 7 24 29 29 19 3 5 11
34 35 36 38 40 42 43 43 43 44 42 39 38 30 23 31 28 30 29 31 27 22 19 20 14 21 25 23 15 20 25 20 18 17 14 7 15 12 7 6 14 23 25 25 13 10 8
34 35 35 37 39 41 42 42 42 41 39 38 36 29 26 30 30 27 27 30 32 29 22 20 17 21 20 18 18 23 25 25 23 19 17 9 14 10 8 10 12 17 19 23 24 19 12
34 34 34 36 38 39 41 40 41 40 38 36 36 31 20 26 26 26 31 32 32 29 18 23 18 18 18 19 14 18 20 25 28 30 20 15 10 10 4 9 6 23 19 19 21 17 19
35 33 34 35 37 38 39 39 40 38 37 35 34 32 24 22 23 25 28 29 28 27 16 18 17 16 16 17 13 11 12 18 21 24 20 18 12 12 5 8 3 10 21 17 16 15 12
35 33 33 33 35 36 37 39 38 37 36 33 30 30 25 18 23 24 26 27 29 24 17 18 17 14 15 15 12 7 9 13 16 16 21 20 12 9 8 11 5 4 9 6 8 16 10
36 32 32 31 33 34 35 37 37 35 34 31 29 28 26 18 22 24 27 31 29 22 20 16 15 14 14 15 16 10 12 9 8 15 19 18 19 6 6 10 11 14 12 5 6 13 11
36 32 31 30 31 33 34 36 36 34 32 30 27 25 25 20 21 23 26 30 32 29 23 19 11 14 13 12 13 7 5 11 8 15 13 12 13 12 12 4 3 15 6 2 4 8 11
36 32 30 28 29 30 32 34 35 33 31 30 27 23 23 19 20 22 23 27 29 28 25 25 16 13 13 10 8 8 5 12 8 12 19 20 13 15 13 5 5 11 6 2 4 5 7
34 31 29 27 27 28 30 32 34 33 31 28 26 22 21 19 18 19 21 25 26 26 27 24 16 20 14 11 8 6 5 9 9 12 14 10 11 9 8 6 4 12 11 8 8 7 6
34 31 28 26 26 27 28 30 33 32 30 29 25 22 18 17 14 17 18 21 24 23 21 22 21 20 13 11 8 5 7 6 10 5 10 5 10 5 5 3 5 8 11 12 10 7 6
Wind_Direction
357 356 358 3 5 3 360 359 360 357 353 348 346 344 342 339 337 333 328 322 317 311 304 299 293 285 275 269 267 271 262 251 238 242 241 238 227 219 216 217 220 227 227 235 216 216 214
359 3 5 5 6 2 1 1 360 356 353 352 351 347 344 341 338 337 335 330 324 318 313 307 300 290 278 267 276 261 259 255 249 253 252 240 232 221 230 222 218 226 229 227 230 238 220
2 6 6 5 3 3 3 2 359 357 355 354 351 348 346 343 342 340 340 334 326 321 314 306 301 296 281 292 276 266 255 256 249 238 243 245 227 219 212 232 230 227 230 234 230 220 228
10 8 6 4 4 4 4 0 359 358 356 354 353 351 350 347 344 341 340 339 332 326 320 311 306 304 309 260 264 238 255 262 259 242 230 238 219 213 219 218 224 222 228 230 231 225 226
10 9 5 4 5 4 2 1 360 359 357 355 354 355 352 349 345 341 342 341 333 329 322 315 301 306 290 252 245 246 240 254 268 250 235 218 213 219 211 222 223 224 221 223 223 228 218
10 7 5 4 3 2 2 0 360 360 359 357 356 356 352 349 345 344 340 338 339 341 344 332 335 273 273 335 321 314 305 283 258 243 225 219 214 218 218 218 219 205 214 223 220 206 210
8 5 3 2 3 3 1 360 359 1 2 359 355 353 353 351 347 343 336 338 342 350 9 40 19 12 344 344 328 309 301 289 283 262 229 222 224 225 216 220 223 233 228 214 221 225 210
5 3 2 2 4 0 1 1 2 2 359 358 357 354 352 351 348 343 341 351 352 350 30 32 2 358 358 354 326 338 334 333 306 251 249 236 226 226 221 218 224 221 232 225 218 230 225
3 2 1 3 1 1 2 4 2 0 358 357 356 353 351 350 348 350 349 348 344 348 47 38 10 352 356 350 355 357 350 342 328 270 241 253 244 232 232 224 226 223 224 223 203 198 214
3 1 1 1 1 2 3 5 2 0 359 355 354 354 352 349 348 354 358 345 343 339 231 13 8 8 355 359 2 341 348 351 347 315 275 254 262 260 238 223 213 215 227 220 198 201 200
2 0 2 1 1 1 3 4 3 1 359 357 355 353 353 353 351 356 350 350 345 344 23 0 347 1 360 9 347 359 356 353 352 343 276 228 256 266 260 252 218 213 224 217 220 205 203
1 1 2 1 0 1 2 2 3 3 359 358 357 353 351 354 358 357 354 346 354 15 8 348 348 357 357 1 356 347 3 7 7 6 13 289 266 275 245 263 255 224 194 209 208 220 211
0 1 1 1 1 2 2 1 4 3 2 360 358 354 357 356 2 3 4 5 8 28 347 340 341 350 356 2 355 357 13 23 25 359 352 9 25 276 267 188 230 136 171 162 188 211 186
0 359 1 1 2 3 4 2 4 3 4 2 0 357 6 5 10 14 19 26 58 2 356 339 347 356 4 0 359 356 19 20 20 16 0 359 337 12 16 220 167 201 202 150 211 122 113
0 358 360 360 1 3 5 4 5 4 4 3 4 7 11 16 25 26 29 49 27 358 345 348 358 4 356 359 360 359 10 21 18 22 359 357 333 359 11 210 160 198 213 224 10 344 88
0 358 359 0 1 2 4 4 6 5 6 6 6 19 16 23 30 32 42 47 25 9 5 10 14 2 358 357 357 12 16 9 6 17 4 349 307 9 34 56 118 18 187 184 197 170 213
360 358 359 359 1 1 4 4 5 9 7 11 9 24 23 26 31 34 40 34 21 15 20 14 2 360 352 358 15 21 12 6 7 6 10 4 9 15 58 39 37 37 26 22 154 123 151
358 357 358 359 1 0 4 6 6 6 10 10 17 25 26 19 35 39 30 26 9 16 19 25 10 17 1 359 3 13 6 1 2 2 8 15 354 336 82 46 36 39 29 27 20 100 133
356 357 358 359 1 360 4 6 7 7 9 10 19 21 22 20 35 28 28 31 21 13 19 10 1 10 14 8 9 359 3 8 10 11 5 20 12 346 28 14 18 23 21 23 56 80 15
355 356 356 358 1 1 3 5 8 8 12 9 22 23 24 23 36 21 22 21 18 19 21 10 1 10 16 22 32 10 20 25 10 7 17 48 35 50 47 10 3 14 18 21 47 47 17
356 355 354 357 1 1 2 5 8 9 12 12 24 28 22 21 27 20 22 16 16 6 15 3 12 14 13 4 11 11 19 19 34 26 29 41 25 40 25 31 35 26 30 28 39 53 63
356 353 353 356 359 0 3 4 7 9 11 13 23 23 23 27 25 18 18 15 8 7 0 5 7 10 12 1 349 353 12 22 23 13 26 26 23 5 45 20 45 36 42 33 35 62 75
355 353 354 354 357 359 2 4 6 8 10 15 17 19 23 26 20 17 13 11 6 359 13 358 358 2 5 358 358 2 8 18 32 8 15 17 16 12 351 4 82 10 13 31 27 32 72
354 353 352 352 356 357 1 4 5 7 9 12 14 15 20 23 20 16 12 11 11 9 1 357 1 4 6 356 351 2 9 21 27 354 17 20 19 360 325 343 60 89 13 32 5 32 84
352 351 350 351 354 356 360 3 2 6 7 9 9 12 16 18 16 15 8 14 15 19 20 14 14 357 360 5 25 15 26 7 13 352 7 16 20 357 350 49 129 12 11 31 29 21 56
350 348 348 349 352 354 358 1 1 3 4 5 6 9 12 12 13 11 10 11 10 19 24 26 4 357 356 24 9 353 40 2 344 356 13 19 26 26 17 57 44 350 12 97 122 35 50
347 345 345 345 350 352 357 358 359 0 2 3 2 4 7 10 11 9 11 11 12 16 19 16 18 19 13 33 33 12 2 359 351 353 358 15 25 14 20 37 28 12 0 34 47 338 49
343 342 341 342 346 349 354 357 357 358 359 360 358 359 1 4 7 7 10 12 10 15 16 16 19 18 23 23 26 359 344 356 352 332 7 358 3 357 9 24 7 39 64 79 64 70 56
339 337 336 338 343 346 350 354 355 356 356 355 356 356 357 360 0 1 5 9 10 10 13 16 20 17 13 19 4 359 332 335 337 345 346 334 356 334 3 331 5 32 48 61 64 70 67
Height
3127 3121 3115 3111 3107 3102 3097 3093 3089 3084 3078 3073 3067 3061 3056 3051 3046 3040 3034 3027 3020 3014 3008 3003 2998 2994 2988 2983 2982 2990 2987 2990 2989 2987 2989 2992 2993 2996 2994 3003 3013 3007 3017 3025 3030 3034 3039
3125 3119 3114 3110 3105 3101 3097 3092 3088 3082 3076 3070 3064 3058 3051 3045 3039 3034 3028 3018 3010 3002 2996 2990 2985 2980 2975 2967 2976 2978 2972 2976 2976 2976 2978 2981 2982 2990 2994 2995 2997 3005 3011 3018 3023 3027 3032
3124 3119 3114 3110 3106 3101 3095 3091 3086 3080 3074 3068 3062 3055 3047 3039 3031 3023 3017 3009 3000 2993 2986 2978 2971 2967 2963 2965 2965 2965 2965 2960 2961 2964 2967 2970 2976 2980 2987 2991 2996 3001 3006 3010 3009 3018 3021
3124 3119 3114 3110 3105 3100 3095 3089 3083 3077 3071 3064 3057 3050 3041 3032 3023 3014 3008 3000 2990 2983 2975 2967 2962 2958 2959 2954 2952 2949 2951 2951 2953 2957 2959 2964 2970 2972 2977 2985 2987 2992 3000 2991 2995 3009 3015
3124 3119 3114 3109 3104 3099 3094 3088 3081 3074 3067 3059 3051 3043 3033 3023 3015 3006 2999 2993 2983 2975 2967 2961 2958 2955 2955 2951 2948 2945 2943 2943 2945 2946 2949 2956 2961 2962 2969 2969 2977 2977 2964 2975 2988 2993 3006
3124 3119 3114 3109 3105 3099 3092 3086 3078 3071 3063 3055 3046 3037 3029 3020 3010 3000 2991 2985 2976 2969 2962 2955 2955 2956 2951 2947 2943 2939 2938 2937 2938 2940 2943 2947 2947 2948 2952 2954 2946 2954 2963 2973 2978 2982 2992
3125 3120 3115 3110 3104 3097 3091 3084 3076 3068 3060 3051 3042 3034 3027 3017 3007 2997 2988 2979 2972 2967 2960 2955 2957 2955 2951 2948 2945 2939 2936 2932 2933 2936 2934 2938 2939 2929 2935 2943 2951 2957 2959 2963 2973 2978 2984
3126 3121 3116 3109 3103 3097 3090 3082 3073 3063 3056 3049 3040 3030 3022 3013 3005 2995 2984 2974 2968 2965 2961 2959 2958 2954 2952 2947 2941 2937 2934 2931 2928 2926 2930 2930 2927 2929 2935 2942 2948 2952 2956 2958 2968 2973 2978
3126 3121 3116 3109 3102 3096 3088 3079 3070 3062 3053 3045 3038 3029 3018 3011 3002 2995 2983 2974 2969 2966 2964 2962 2960 2956 2950 2947 2941 2937 2933 2928 2922 2920 2921 2922 2922 2926 2930 2933 2938 2942 2949 2954 2960 2968 2971
3126 3121 3115 3109 3102 3094 3086 3077 3069 3060 3051 3043 3034 3025 3016 3006 2999 2988 2981 2973 2968 2964 2963 2965 2958 2957 2951 2948 2944 2939 2933 2928 2923 2919 2916 2916 2918 2919 2921 2924 2929 2932 2938 2951 2955 2960 2963
3127 3121 3114 3108 3101 3092 3084 3077 3068 3059 3050 3041 3031 3021 3014 3002 2993 2986 2979 2973 2969 2965 2966 2967 2962 2960 2954 2951 2947 2940 2933 2925 2921 2916 2917 2916 2915 2915 2917 2918 2918 2921 2933 2940 2949 2952 2961
3126 3120 3114 3108 3101 3092 3083 3075 3067 3057 3049 3039 3029 3019 3010 3003 2996 2986 2978 2973 2970 2969 2971 2970 2966 2958 2955 2951 2946 2940 2935 2927 2919 2915 2912 2911 2912 2915 2917 2917 2917 2920 2925 2933 2941 2946 2946
3126 3120 3114 3108 3100 3092 3083 3074 3064 3056 3047 3038 3029 3019 3008 3000 2988 2983 2977 2973 2973 2979 2981 2974 2966 2960 2956 2951 2946 2941 2936 2928 2924 2919 2914 2912 2912 2913 2917 2921 2919 2918 2922 2928 2930 2934 2934
3125 3118 3113 3108 3100 3092 3083 3074 3064 3055 3047 3038 3029 3021 3010 3001 2993 2984 2979 2976 2978 2986 2982 2976 2969 2964 2959 2953 2947 2946 2940 2935 2932 2928 2922 2919 2916 2913 2914 2915 2916 2921 2926 2925 2926 2926 2932
3124 3119 3113 3106 3097 3090 3082 3074 3063 3055 3045 3037 3028 3020 3011 3002 2995 2988 2981 2977 2988 2987 2984 2976 2970 2965 2962 2957 2953 2947 2944 2940 2938 2934 2933 2926 2921 2919 2915 2915 2920 2922 2922 2925 2929 2931 2933
3124 3119 3112 3105 3097 3089 3080 3073 3065 3054 3046 3036 3029 3018 3012 3004 2998 2992 2983 2989 2992 2990 2984 2980 2975 2972 2966 2961 2955 2949 2947 2945 2941 2939 2937 2934 2926 2923 2919 2917 2917 2918 2921 2927 2931 2931 2933
3124 3118 3111 3104 3096 3089 3079 3071 3063 3055 3045 3037 3030 3020 3016 3008 3002 2994 2990 2996 2994 2992 2987 2983 2980 2975 2972 2966 2962 2958 2956 2951 2945 2941 2939 2936 2932 2929 2924 2925 2926 2923 2922 2921 2923 2926 2929
3124 3118 3111 3104 3097 3089 3080 3071 3062 3053 3047 3037 3028 3022 3018 3012 3004 3001 2999 2999 2997 2992 2989 2986 2983 2978 2974 2970 2965 2962 2961 2957 2952 2947 2941 2939 2937 2933 2933 2932 2930 2928 2927 2924 2923 2929 2932
3123 3117 3110 3104 3097 3090 3081 3071 3063 3055 3044 3037 3028 3023 3021 3016 3006 3006 3006 3002 2999 2994 2991 2987 2984 2982 2977 2974 2970 2967 2963 2960 2956 2951 2948 2945 2943 2938 2935 2938 2936 2932 2931 2929 2927 2928 2931
3122 3115 3109 3103 3097 3090 3081 3072 3063 3055 3047 3041 3031 3029 3023 3018 3015 3012 3008 3004 3000 2997 2993 2990 2988 2983 2978 2976 2974 2971 2965 2962 2959 2956 2952 2950 2950 2949 2952 2951 2947 2941 2937 2934 2931 2933 2938
3121 3115 3109 3103 3097 3089 3081 3073 3064 3057 3050 3044 3036 3031 3027 3022 3017 3015 3011 3007 3002 2996 2995 2991 2988 2985 2982 2978 2975 2972 2969 2965 2962 2959 2955 2954 2954 2953 2953 2951 2950 2947 2945 2942 2939 2939 2940
3119 3114 3108 3102 3096 3089 3082 3074 3065 3058 3051 3045 3038 3035 3031 3026 3022 3019 3014 3008 3004 3000 2997 2993 2991 2987 2984 2982 2980 2976 2973 2970 2966 2962 2960 2958 2957 2955 2955 2953 2952 2950 2950 2948 2946 2945 2946
3119 3113 3107 3102 3096 3090 3082 3074 3066 3059 3052 3045 3041 3036 3032 3029 3025 3021 3017 3012 3008 3002 3000 2996 2992 2989 2986 2983 2981 2979 2976 2975 2970 2970 2965 2961 2959 2957 2956 2956 2956 2957 2957 2957 2957 2953 2952
3118 3112 3107 3101 3096 3089 3082 3074 3067 3060 3054 3048 3043 3039 3033 3032 3027 3023 3020 3016 3009 3003 2999 2996 2993 2990 2989 2984 2982 2979 2978 2976 2973 2973 2970 2965 2962 2960 2958 2956 2963 2967 2965 2963 2961 2960 2957
3116 3111 3106 3101 3095 3089 3082 3075 3068 3062 3056 3050 3045 3040 3035 3032 3030 3026 3021 3015 3012 3007 3001 2996 2994 2991 2988 2986 2982 2979 2978 2978 2977 2974 2972 2969 2966 2963 2963 2960 2967 2966 2965 2965 2965 2965 2962
3115 3109 3105 3100 3094 3088 3082 3076 3069 3063 3057 3051 3046 3042 3037 3034 3031 3026 3022 3017 3012 3006 3003 2999 2996 2992 2989 2986 2985 2984 2983 2982 2978 2976 2974 2971 2969 2969 2965 2965 2971 2970 2967 2966 2965 2966 2963
3113 3108 3103 3098 3093 3088 3082 3076 3070 3064 3058 3052 3047 3043 3038 3035 3031 3028 3024 3020 3014 3010 3005 3000 2997 2994 2991 2989 2987 2986 2986 2985 2982 2980 2975 2972 2970 2969 2968 2968 2970 2967 2966 2965 2966 2972 2965
3111 3107 3102 3097 3092 3087 3081 3076 3070 3064 3058 3053 3048 3043 3040 3036 3033 3029 3026 3021 3017 3012 3007 3004 3000 2996 2993 2990 2990 2989 2988 2986 2984 2982 2980 2978 2975 2974 2972 2971 2974 2970 2968 2968 2970 2968 2968
3109 3104 3100 3095 3090 3085 3080 3075 3070 3063 3057 3052 3047 3043 3040 3036 3034 3030 3027 3024 3020 3015 3011 3007 3003 2999 2996 2993 2993 2991 2989 2988 2986 2984 2983 2981 2980 2979 2978 2977 2975 2974 2973 2972 2972 2972 2971